Seattle, WA

5:35 AM PST on November 24, 2017 (GMT -0800)
Seattle-Tacoma International

Weather History for KSEA - June, 2013

Change the Weather History Date:

Monday, June 10, 2013

  Actual Average Record
Temperature  
Mean Temperature 62 °F 60 °F  
Max Temperature 71 °F 69 °F 83 °F (1982)
Min Temperature 53 °F 51 °F 43 °F (1946)
Degree Days  
Heating Degree Days 3 5  
Month to date heating degree days 18 61  
Since 1 June heating degree days 18 61  
Since 1 July heating degree days 4301 4614  
Cooling Degree Days 0 0  
Month to date cooling degree days 8 0  
Year to date cooling degree days 21 6  
Since 1 June cooling degree days 8 0  
Growing Degree Days 12 (Base 50)    
Moisture  
Dew Point 44 °F    
Average Humidity 55    
Maximum Humidity 72    
Minimum Humidity 37    
Precipitation  
Precipitation 0.00 in 0.06 in 0.88 in (1983)
Month to date precipitation 0.04 0.63  
Year to date precipitation 16.79 18.07  
Sea Level Pressure  
Sea Level Pressure 29.99 in    
Wind  
Wind Speed 7 mph (NW)    
Max Wind Speed 15 mph    
Max Gust Speed 18 mph    
Visibility 10 miles    
Events      
T = Trace of Precipitation, MM = Missing Value Source: NWS Daily Summary

Daily Weather History Graph

Daily Weather History Graph

Search for Another Location

Airport or City:

Trip Planner

Search our weather history database for the weather conditions in past years. The results will help you decide how hot, cold, wet, or windy it might be!

Date:

Astronomy

Jun. 10, 2013 Rise Set
Actual Time 5:12 AM PDT 9:05 PM PDT
Civil Twilight 4:32 AM PDT 9:45 PM PDT
Nautical Twilight 3:37 AM PDT 10:40 PM PDT
Astronomical Twilight 2:13 AM PDT 12:05 AM PDT
Moon 7:12 AM PDT (6/10) 10:27 PM PDT (6/10)
Length of Visible Light 17h 13m
Length of Day
15h 53m
Waxing Crescent, 4% of the Moon is Illuminated
Jun 10
Waxing Crescent
Jun 16
First Quarter
Jun 23
Full
Jun 29
Last Quarter
Jul 8
New

Hourly Weather History & Observations

Time (PDT) Temp. Dew Point Humidity Pressure Visibility Wind Dir Wind Speed Gust Speed Precip Events Conditions
12:53 AM 55.0 °F 43.0 °F 64% 30.06 in 10.0 mi NNE 12.7 mph - N/A   Mostly Cloudy
1:53 AM 54.0 °F 43.0 °F 66% 30.06 in 10.0 mi NE 10.4 mph - N/A   Overcast
2:53 AM 54.0 °F 43.0 °F 66% 30.05 in 10.0 mi NE 6.9 mph - N/A   Overcast
3:53 AM 54.0 °F 42.1 °F 64% 30.04 in 10.0 mi NE 9.2 mph - N/A   Mostly Cloudy
4:53 AM 53.1 °F 42.1 °F 66% 30.04 in 10.0 mi NNE 6.9 mph - N/A   Mostly Cloudy
5:53 AM 53.1 °F 43.0 °F 69% 30.04 in 10.0 mi NNE 4.6 mph - N/A   Mostly Cloudy
6:53 AM 54.0 °F 43.0 °F 66% 30.03 in 10.0 mi NNE 5.8 mph - N/A   Partly Cloudy
7:53 AM 55.9 °F 44.1 °F 64% 30.03 in 10.0 mi NNE 8.1 mph - N/A   Partly Cloudy
8:53 AM 57.0 °F 45.0 °F 64% 30.03 in 10.0 mi NNE 6.9 mph - N/A   Mostly Cloudy
9:05 AM 57.2 °F 44.6 °F 63% 30.01 in 10.0 mi NE 6.9 mph - N/A   Mostly Cloudy
9:53 AM 57.9 °F 45.0 °F 62% 30.02 in 10.0 mi Variable 3.5 mph - N/A   Mostly Cloudy
10:53 AM 59.0 °F 46.0 °F 62% 30.01 in 10.0 mi Calm Calm - N/A   Mostly Cloudy
11:35 AM 60.8 °F 46.4 °F 59% 29.99 in 10.0 mi NW 6.9 mph - N/A   Scattered Clouds
11:53 AM 63.0 °F 46.0 °F 54% 30.00 in 10.0 mi Variable 4.6 mph - N/A   Scattered Clouds
12:53 PM 64.0 °F 46.9 °F 54% 29.99 in 10.0 mi NW 9.2 mph - N/A   Scattered Clouds
1:53 PM 66.0 °F 46.0 °F 48% 29.98 in 10.0 mi WNW 6.9 mph 16.1 mph N/A   Mostly Cloudy
2:53 PM 68.0 °F 45.0 °F 43% 29.96 in 10.0 mi Variable 3.5 mph - N/A   Scattered Clouds
3:53 PM 70.0 °F 42.1 °F 36% 29.96 in 10.0 mi WSW 11.5 mph - N/A   Scattered Clouds
4:53 PM 70.0 °F 44.1 °F 39% 29.94 in 10.0 mi WNW 6.9 mph - N/A   Scattered Clouds
5:53 PM 70.0 °F 46.0 °F 42% 29.94 in 10.0 mi WSW 8.1 mph - N/A   Scattered Clouds
6:53 PM 68.0 °F 45.0 °F 43% 29.92 in 10.0 mi WSW 8.1 mph - N/A   Scattered Clouds
7:53 PM 66.9 °F 44.1 °F 44% 29.92 in 10.0 mi WSW 10.4 mph - N/A   Scattered Clouds
8:53 PM 62.1 °F 45.0 °F 53% 29.94 in 10.0 mi WSW 9.2 mph - N/A   Scattered Clouds
9:53 PM 59.0 °F 45.0 °F 60% 29.96 in 10.0 mi WSW 6.9 mph - N/A   Mostly Cloudy
10:53 PM 57.0 °F 45.0 °F 64% 29.98 in 10.0 mi SW 8.1 mph - N/A   Scattered Clouds
11:53 PM 55.9 °F 46.0 °F 69% 29.98 in 10.0 mi SSW 9.2 mph - N/A   Mostly Cloudy